This demonstration page uses our WeatherBlox Daily Observations layout. Learn more.

Left ArrowRight Arrow

44.8408, -93.29828

Hourly Observations for June 24, 2017

Temp ( °F °C ) Dew Point ( °F °C ) Humidity (%) Winds ( mph kmh ) Pressure ( in mb ) Visibility ( mi km ) Precip ( " mm )
12:53 am 00:53 Mostly Cloudy 62 16.7 46 7.8 56 56 WNW 13 20 29.94 1014 10 16 0.00 0.00
1:53 am 01:53 Mostly Clear 59 15 46 7.8 62 62 WNW 8 13 29.94 1014 10 16 0.00 0.00
2:53 am 02:53 Mostly Cloudy 59 15 46 7.8 62 62 WNW 10 17 29.95 1014 10 16 0.00 0.00
3:53 am 03:53 Mostly Clear 57 13.9 46 7.8 67 67 WNW 9 15 29.95 1014 10 16 0.00 0.00
4:53 am 04:53 Mostly Clear 56 13.3 46 7.8 70 70 W 8 13 29.96 1015 10 16 0.00 0.00
5:53 am 05:53 Mostly Sunny 55 12.8 45 7.2 69 69 WNW 12 19 29.98 1015 10 16 0.00 0.00
6:53 am 06:53 Mostly Cloudy 56 13.3 44 6.7 65 65 WNW 13 20 29.99 1016 10 16 0.00 0.00
7:53 am 07:53 Sunny 58 14.4 43 6.1 58 58 WNW 12 19 30.00 1016 10 16 0.00 0.00
8:53 am 08:53 Mostly Sunny 60 15.6 42 5.6 52 52 WNW 21 33 30.01 1016 10 16 0.00 0.00
9:53 am 09:53 Mostly Sunny 63 17.2 41 5 45 45 NW 21 33 30.01 1016 10 16 0.00 0.00
10:53 am 10:53 Mostly Sunny 64 17.8 42 5.6 45 45 W 17 28 30.01 1016 10 16 0.00 0.00
11:53 am 11:53 Cloudy 64 17.8 40 4.4 41 41 W 18 30 30.01 1016 10 16 0.00 0.00
12:53 pm 12:53 Mostly Cloudy 63 17.2 40 4.4 43 43 W 16 26 30.01 1016 10 16 0.00 0.00
1:53 pm 13:53 Partly Cloudy 66 18.9 40 4.4 39 39 W 23 37 29.99 1016 10 16 0.00 0.00
2:48 pm 14:48 Mostly Cloudy with Thunderstorms 54 12 48 9 82 82 WNW 16 26 30.03 1017 9 14 0.00 0.03
2:53 pm 14:53 Mostly Cloudy with Thunderstorms 55 12.8 49 9.4 80 80 WNW 15 24 30.04 1017 10 16 0.00 0.03
3:08 pm 15:08 Mostly Cloudy 59 15 49 9.4 69 69 WNW 14 22 30.00 1016 10 16 0.00 0.03
3:53 pm 15:53 Mostly Cloudy 62 16.7 44 6.7 52 52 WNW 16 26 30.02 1017 10 16 0.00 0.03
4:53 pm 16:53 Mostly Cloudy 65 18.3 45 7.2 49 49 WNW 17 28 30.01 1016 10 16 0.00 0.00
5:53 pm 17:53 Mostly Cloudy 63 17.2 42 5.6 47 47 NW 15 24 30.01 1016 10 16 0.00 0.00
6:53 pm 18:53 Mostly Cloudy 63 17.2 43 6.1 48 48 NW 15 24 30.03 1017 10 16 0.00 0.00
7:53 pm 19:53 Partly Cloudy 63 17.2 45 7.2 52 52 WNW 10 17 30.04 1017 10 16 0.00 0.00
8:53 pm 20:53 Mostly Cloudy 60 15.6 45 7.2 58 58 WNW 9 15 30.05 1018 10 16 0.00 0.00
9:53 pm 21:53 Partly Cloudy 60 15.6 45 7.2 58 58 WNW 9 15 30.06 1018 10 16 0.00 0.00
10:53 pm 22:53 Mostly Clear 57 13.9 46 7.8 67 67 WNW 7 11 30.07 1018 10 16 0.00 0.00
11:53 pm 23:53 Mostly Clear 57 13.9 47 8.3 69 69 WNW 12 19 30.07 1018 10 16 0.00 0.00

Powered by AerisWeather